Regional Weather Roundup
Issued by NWS

Home | Current Version | Previous Version | Text Only | Print | Product List | Glossary Off
Versions: 1 2 3 4 5 6 7 8 9 10 11 12 13 14 15 16 17 18 19 20 21 22 23 24 25 26 27 28 29 30 31 32 33 34 35 36 37 38 39 40 41 42 43 44 45 46 47 48 49 50

401
ASUS45 KPSR 050810
RWRAZ

ARIZONA HOURLY REGIONAL WEATHER ROUNDUP
NATIONAL WEATHER SERVICE PHOENIX AZ
100 AM MST THU MAY 05 2016

NOTE: FAIR INDICATES FEW OR NO CLOUDS BELOW 12,000 FEET WITH NO
SIGNIFICANT WEATHER AND/OR OBSTRUCTIONS TO VISIBILITY.

AZZ001>003-036-050900-
NORTHWEST ARIZONA

CITY           SKY/WX    TMP DP  RH WIND       PRES   REMARKS
BULLHEAD CITY  MOCLDY    84  32  15 S8        29.75S
KINGMAN        MOCLDY    67  28  23 SE15      29.90F
$$

AZZ004>008-015-016-018-050900-
NORTH CENTRAL ARIZONA

CITY           SKY/WX    TMP DP  RH WIND       PRES   REMARKS
GRAND CANYON   PTCLDY    39  30  70 CALM      30.15R
WILLIAMS       CLEAR     46  23  39 S8        30.22F
PRESCOTT       CLEAR     62  24  23 SE6       30.06S
FLAGSTAFF      CLEAR     38  29  70 CALM      30.18S
PAYSON         CLEAR     61  27  27 CALM      30.10S
PAGE           CLEAR     66  27  23 CALM      29.98S
$$

AZZ009>014-017-050900-
NORTHEAST ARIZONA

CITY           SKY/WX    TMP DP  RH WIND       PRES   REMARKS
WINSLOW        PTCLDY    61  32  33 S13       30.06S
SAINT JOHNS    CLEAR     60  24  25 SE8       30.11F
WINDOW ROCK    CLEAR     45  35  68 CALM      30.21F
SHOW LOW       CLEAR     52  23  32 S8        30.17S
$$

AZZ023-050900-
GREATER PHOENIX AREA

CITY           SKY/WX    TMP DP  RH WIND       PRES   REMARKS
PHOENIX        CLEAR     80  28  15 CALM      29.82S
BUCKEYE        PTCLDY    72  23  16 E3        29.83F
LUKE AFB       PTCLDY    79  30  16 SE5       29.82S
DEER VALLEY    CLEAR     74  26  16 E5        29.84F
SCOTTSDALE     CLEAR     77  30  17 CALM      29.86S
MESA-GATEWAY   CLEAR     70  32  24 SE7       29.86F
$$

AZZ027-028-050900-
SOUTHWEST MARICOPA COUNTY AND PINAL COUNTY

CITY           SKY/WX    TMP DP  RH WIND       PRES   REMARKS
CASA GRANDE    CLEAR     75  25  15 S5        29.88R
GILA BEND      FAIR      75  21  13 SE10      29.80F
$$

AZZ503-504-507>509-050900-
SOUTHEAST ARIZONA

CITY           SKY/WX    TMP DP  RH WIND       PRES   REMARKS
TUCSON         CLEAR     69  32  25 SW3       29.95F
DAVIS-MONTHAN  CLEAR     70  33  26 VRB2      29.93F
NOGALES        CLEAR     63  31  30 E6        30.01F
SIERRA VISTA   CLEAR     63  25  23 SW3       30.07F
DOUGLAS        CLEAR     71  25  17 E10       30.03F
SAFFORD        CLEAR     70  24  17 E7        29.98F
$$

AZZ020-021-025-026-031-050900-
SOUTHWEST ARIZONA

CITY           SKY/WX    TMP DP  RH WIND       PRES   REMARKS
YUMA           MOCLDY    76  42  29 SE13      29.73F
$$

CAZ031-033-041-043-047-048-061-050900-
SOUTHERN CALIFORNIA

CITY           SKY/WX    TMP DP  RH WIND       PRES   REMARKS
DOWNTOWN L.A.  CLOUDY    60  52  74 VRB3      29.93F
L.A. AIRPORT   CLOUDY    61  54  77 NW7       29.93F
SAN DIEGO      CLOUDY    62  52  69 VRB3      29.96S
BURBANK        CLOUDY    57  50  77 SW7       29.93S
ONTARIO        MOCLDY    57  51  80 W9        29.92F
RIVERSIDE      CLOUDY    57  51  80 W5        29.93S
PALM SPRINGS   CLEAR     72  45  37 NW12G18   29.74F
EL CENTRO NAS  CLEAR    N/A N/A N/A W15       29.73F
IMPERIAL       PTCLDY    75  45  34 W9        29.71F
BLYTHE         MOCLDY    75  37  25 SE8       29.74S
NEEDLES        MOCLDY    79  36  21 VRB5      29.75S
$$

NVZ020-UTZ003-050900-
SOUTHERN NEVADA-UTAH

CITY           SKY/WX    TMP DP  RH WIND       PRES   REMARKS
LAS VEGAS      CLOUDY    76  29  17 S7        29.74F
SALT LAKE CITY CLOUDY    66  37  34 S10       29.95S
$$

NMZ009-TXZ055-050900-
NEW MEXICO-WEST TEXAS

CITY           SKY/WX    TMP DP  RH WIND       PRES   REMARKS
ALBUQUERQUE    CLEAR     61  21  21 CALM      30.19F
EL PASO        CLEAR     67  19  16 CALM      30.12S
$$


........................KEY........................
SKY/WX - SKY CONDITION/WEATHER
TMP    - TEMPERATURE IN FAHRENHEIT
DP     - DEW POINT IN FAHRENHEIT
RH     - RELATIVE HUMIDITY IN PERCENT
WIND   - DIRECTION AND SPEED IN MILES PER HOUR (MPH)
VRB    - VARIABLE WIND DIRECTION
PRES   - MEAN SEA LEVEL PRESSURE IN INCHES OF MERCURY
         F - FALLING PRESSURE   R - RISING PRESSURE
         S - STEADY PRESSURE
VSB    - VISIBILITY IN MILES
HX     - HEAT INDEX IN FAHRENHEIT
WCI    - WIND CHILL INDEX IN FAHRENHEIT
TC     - TEMPERATURE IN CELSIUS WHICH IS ALSO KNOWN AS
         TEMPERATURE IN CENTIGRADE
AFB    - AIR FORCE BASE
         LUKE AFB IS LUKE AIR FORCE BASE
         DAVIS-MONTHAN IS DAVIS-MONTHAN AIR FORCE BASE
NAS    - NAVAL AIR STATION
         EL CENTRO NAS IS EL CENTRO NAVAL AIR STATION
N/A    - NOT AVAILABLE





USA.gov is the U.S. government's official web portal to all federal, state and local government web resources and services.